Regional Weather Roundup
Issued by NWS

Home | Current Version | Previous Version | Graphics & Text | Print | Product List | Glossary On
Versions: 1 2 3 4 5 6 7 8 9 10 11 12 13 14 15 16 17 18 19 20 21 22 23 24 25 26 27 28 29 30 31 32 33 34 35 36 37 38 39 40 41 42 43 44 45 46 47 48 49 50
000
ASUS43 KFSD 020102
RWRSD

WEATHER ROUNDUP FOR SOUTH DAKOTA
NATIONAL WEATHER SERVICE SIOUX FALLS SD
800 PM CDT MON JUN 01 2015

NOTE: "FAIR" INDICATES FEW OR NO CLOUDS BELOW 12,000 FEET WITH NO
SIGNIFICANT WEATHER AND/OR OBSTRUCTIONS TO VISIBILITY.


SDZ001>005-009-010-012>017-020200-
NORTHWEST AND NORTH CENTRAL SOUTH DAKOTA

CITY           SKY/WX    TMP DP  RH WIND       PRES   REMARKS
BUFFALO          N/A     79  62  56 SE13      29.73F
FAITH            N/A     79  59  50 SE14      29.81R
MOBRIDGE       SUNNY     82  62  50 SE13      29.78F
$$

SDZ012>016-024>037-041>051-057-063-072>074-020200-
SOUTHWEST AND SOUTH CENTRAL SOUTH DAKOTA

CITY           SKY/WX    TMP DP  RH WIND       PRES   REMARKS
RAPID CTY ARPT PTSUNNY   77  59  53 SE10      29.81R
PIERRE         MOSUNNY   79  62  56 SE16      29.82F
CUSTER         CLOUDY    69  47  45 SW13G23   29.97F
ELLSWORTH AFB  LGT RAIN  77  63  61 NE12      29.81
PHILIP         MOSUNNY   80  62  54 S10       29.81R
PINE RIDGE     CLOUDY    78  58  49 S18       29.86F
WINNER         FAIR      82  59  45 S18G26    29.88F
$$

SDZ004>011-016>023-039-040-020200-
NORTHEAST SOUTH DAKOTA

CITY           SKY/WX    TMP DP  RH WIND       PRES   REMARKS
ABERDEEN       MOSUNNY   78  58  49 S17G25    29.88F
WATERTOWN      PTCLDY    73  48  41 S15G22    29.97F
BROOKINGS      CLEAR     73  48  40 S15       30.01S
SISSETON         N/A     76  49  38 S14       29.94F
$$

SDZ017-020-022-023-036>040-048>070-020200-
SOUTHEAST SOUTH DAKOTA

CITY           SKY/WX    TMP DP  RH WIND       PRES   REMARKS
SIOUX FALLS    PTCLDY    73  49  42 S15       30.01S
HURON          MOSUNNY   78  57  48 S18       29.91F
CHAMBERLAIN    MOSUNNY   76  62  60 SE15      29.89F
MITCHELL       CLEAR     79  57  46 S18       29.94F
YANKTON        CLEAR     75  52  43 S16       29.97S
$$

ABBREVIATIONS USED IN REMARKS
   TC - TEMPERATURE IN CELSIUS
  WCI - WIND CHILL INDEX
   HX - HEAT INDEX
  VSB - VISIBILITY



USA.gov is the U.S. government's official web portal to all federal, state and local government web resources and services.